Погода Тарко-Сале

Хотите узнать прогноз погоды Тарко-Сале? Тогда Вам сюда: Погода Тарко-Сале

Поиск расширенной информации на нашем сайте:

Полезная информация:

Новости сайта



02.01.2020
Опубликован Долгосрочный прогноз погоды по городам России и ближнего зарубежья на январь 2020 года.
Карты: Прогноз на январь и февраль 2020 года, Сравнение прогнозируемой аномалии приземной температуры воздуха на январь 2020 года по разным моделям.




Погода Тарко-Сале - сегодня

Время (UTC), дата Ветер
(°,м/с) 
Видим.   Явления Облачность Т
(°С)
Тd
(°С)
f(%) Тe
(°С)
Pmin
(гПа)
dP
(гПа)
Po
(мм)
O2
(г/м3)
Тmin Tmax R s Состояние
почвы
15 27.03.20 290 (З) 4{13}  4000 м  слаб. снег  10/8 120 м средняя 
[Frnb|As op]
-3.4 -4.4 93 -6  993.5  1.5  743  303    +0.4     
18 27.03.20 300 (СЗ) 5-10{13}  4000 м  слаб. ливневой снег  10/8 300 м кучево-дожд., средняя 
[Cb cap|Ac As]
-3.6 -5 90 -7  994.9  1.4  744  304           
21 27.03.20 290 (З) 5-11{12}  4000 м  слаб. ливневой снег  10/8 270 м кучево-дожд., средняя 
[Cb cap|Ac As]
-4.4 -5.8 90 -8  996.8  1.8  745  306           
00 28.03.20 300 (СЗ) 5-10{13}  4000 м  слаб. ливневой снег  10/8 360 м кучево-дожд., средняя 
[Cb cap|Ac As]
-3.8 -5.3 89 -7  998.4  1.7  746  306           
03 28.03.20 300 (СЗ) 5{13}  10 км  позёмок{ливн. осадки}  10/8 360 м кучево-дожд., средняя 
[Cb cap|Ac trans]
-4.2 -6.1 87 -8  1000.3  1.8  748  307  -4.4    79  равномерный
сухой снег
100% 
06 28.03.20 290 (З) 5{13}  10 км  позёмок{ливн. осадки}  10/6 420 м кучево-дожд., средняя 
[Cb cap|Ac trans]
-3.3 -6.6 78 -7  1001.9  1.7  749  306           
09 28.03.20 300 (СЗ) 10 км    3/0 средняя 
[Ac trans]
-1.1 -7.2 63 -4  1003  1.1  750  304           
12 28.03.20 250 (З) 10 км    10/6 330 м кучево-дожд., средняя 
[Cb cap|Ac As]
-1.2 -3.2 86 -3  1003.6  0.5  750  304           
15 28.03.20 240 (ЮЗ) 10 км    10/6 330 м кучево-дожд., средняя 
[Cb cap|Ac As]
-1 -3.3 84 -3  1003.8  0.2  750  304    -0.8  0.0     
18 28.03.20 290 (З) 10 км    5/5 480 м кучево-дожд. 
[Cb cap]
-1.8 -3.9 86 -4  1004.4  0.6  751  305           
21 28.03.20 240 (ЮЗ) 10 км    6/6 800 м 
[Sc]
-3.7 -5.5 87 -3  1004.5  0.1  751  307           
00 29.03.20 220 (ЮЗ) 10 км    3/3 600 м 
[Sc]
-6.4 -7.5 92 -8  1004.4  -0.1  751  311           
03 29.03.20 220 (ЮЗ) 10 км    10/3 600 м средняя 
[Sc|Ac As]
-2.9 -5.3 83 -4  1003.6  -0.8  750  306  -6.9    0.0  78  равномерный
сухой снег
100% 
06 29.03.20 210 (ЮЗ) 10 км    9/0 средняя 
[Ac trans]
+1.3 -4.8 64 +1  1002.1  -1.4  749  301           
09 29.03.20 180 (Ю) 10 км    10/0 средняя 
[Ac As]
+2.8 -3.5 63 +2  1000  -2  748  299           
12 29.03.20 200 (Ю) 2000 м  ливневой снег  10/10 100 м кучево-дожд. 
[Cb cap]
+0.5 +0.5 100 -2  997.1  -2.9  745  300           
15 29.03.20 230 (ЮЗ) 4000 м  слаб. ливневой снег  10/6 360 м кучево-дожд., средняя 
[Cb cap|Ac As]
+1.9 -0.9 82 995.2  -1.9  744  298    +4.1     
18 29.03.20 280 (З) 5-10{11}  10 км  {ливн. осадки}  10/6 840 м кучево-дожд., средняя 
[Cb cap|Ac As]
+0.7 -2.1 81 -2  996.7  1.5  745  300           
21 29.03.20 240 (ЮЗ) 3{11}  10 км    ясно 
-2.3 -5.1 81 -4  998.8  747  304           
00 30.03.20 240 (ЮЗ) 3{11}  10 км    1/0 верхняя 
[Ci fib]
-3.5 -6.6 79 -6  1000.4  1.6  748  306           
03 30.03.20 260 (З) 10 км    10/0 средняя, верхняя 
[Ac trans|Ci fib]
-1.5 -6.8 67 -3  1001.6  1.2  749  304  -3.7    0.0     
06 30.03.20 260 (З) 10 км    10/0 средняя 
[As op]
-0.4 -5.9 66 -2  1002.7  1.1  750  303           
09 30.03.20 260 (З) 10 км  в посл. час ливневой снег  10/3 600 м кучево-дожд., средняя 
[Cb cap|As op]
-0.1 -7.3 58 -2  1003.3  0.7  750  303           
12 30.03.20 270 (З) 10 км  {ливн. осадки}  6/0 верхняя 
[Ci fib]
-0.5 -7.5 59 -2  1005.4  752  304           
15 30.03.20 280 (З) 10 км    10/0 верхняя 
[Cs]
-3.7 -10.8 58 -5  1006.8  1.4  753  308    +0.1  0.0     
Время (UTC), дата Ветер
(°,м/с) 
Видим.   Явления Облачность Т
(°С)
Тd
(°С)
f(%) Тe
(°С)
Pmin
(гПа)
dP
(гПа)
Po
(мм)
O2
(г/м3)
Тmin Tmax R s Состояние
почвы

Для получения пояснительной информации подведите курсор к названию столбца.

ПОГОДА Тарко-Сале - архив

Всё, что Вы хотите узнать о погоде Тарко-Сале - удобно и подробно!

Выберите нужную дату (начиная с 1 января 2019* года) и нажмите кнопку "Найти".
Будут отображены архивные сводки погоды по пункту Тарко-Сале, начиная с указанной даты.


Отображать данные в формате CSV (для использования в таблицах Excel)


Внимание! Наш архив погоды предназначен исключительно для личного некоммерческого использования в познавательных целях. Если Вам необходимы официальные справки о состоянии погоды (для производственных, юридических, коммерческих и т.п. целей), обращайтесь в органы Росгидромета.

*Примечание: данная дата относится к архиву по метеостанциям СССР (Россия, СНГ, Балтия).
Архив по метеостанциям Зарубежной Европы и Азии (кроме Китая) хранится 10 дней, по другим регионам земного шара (Китай, Африка, Америка, Австралия, Океания) - 1 день.

Тарко-Сале - район местоположения метеостанции


Название, широта, долгота, высота метеостанции:
Тарко-Сале 64.9°ш. 77.8°д. 27 м над ур. моря [Российская Федерация]

Дополнительная информация

В oтличие oт бoльшинства пoгoдных сайтoв мы публикуем пoдрoбную метеoинфoрмацию в детальнoм прoфессиoнальнoм фoрмате.

Характеристики температуры и влажнoсти вoздуха измеряются на высoте 2 м в тени вдали oт зданий и деревьев.
Скoрoсть ветра измеряется на высoте 10 м (на урoвне рoста челoвека скoрoсть ветра ниже в 1.5-2 раза). Если метеoстанция нахoдится в гoрoде или в лесу, тo скoрoсть ветра занижена на 2-4 м/с пo сравнению с oткрытым местoм. Скoрoсть ветра над акватoриями крупных рек и oзёр, а также на вершинах хoлмoв на 2-5 м/с выше, чем в oбычных услoвиях.
Атмoсфернoе давление в разных тoчках местнoсти мoжет значительнo oтличаться oт давления на метеoстанции, в зависимoсти oт услoвий рельефа (при пoдъёме на 10 м давление пoнижается примернo на 1 мм рт.ст.).